ENT415 EPWA-LTAI

Flight info

Callsign ENT415
Flight time N/A
Altitude 35000
Route EVINA DCT KOTEK DCT KENIN DCT UPAMA/N0454F370 DCT ADORU UL606 CRD UL854 KOZLU
Aircraft B38M/M-SDE1FGHILORVWXY/HB1

Departure

Time N/A
Airport Warsaw Chopin Airport (EPWA)

Arrival

Time 2026-05-05 16:48
Airport Antalya International Airport (LTAI)
Time Latitude Longitude Altitude Speed Heading
2026-05-05 15:48 41.96721 26.50796 37023 ft 483 kts 154°
2026-05-05 15:48 41.92694 26.53343 37020 ft 483 kts 154°
2026-05-05 15:49 41.87602 26.56589 37016 ft 484 kts 151°
2026-05-05 15:49 41.82058 26.61693 37012 ft 484 kts 144°
2026-05-05 15:50 41.76553 26.66880 37024 ft 484 kts 144°
2026-05-05 15:50 41.71044 26.72078 37023 ft 484 kts 144°
2026-05-05 15:51 41.65524 26.77275 37026 ft 485 kts 144°
2026-05-05 15:51 41.60026 26.82441 37028 ft 485 kts 144°
2026-05-05 15:52 41.54507 26.87615 37031 ft 485 kts 144°
2026-05-05 15:52 41.48968 26.92797 37029 ft 485 kts 144°
2026-05-05 15:53 41.43435 26.97963 37035 ft 486 kts 144°
2026-05-05 15:53 41.37895 27.03123 37038 ft 486 kts 144°
2026-05-05 15:54 41.32359 27.08270 37036 ft 486 kts 144°
2026-05-05 15:54 41.26832 27.13398 37039 ft 486 kts 144°
2026-05-05 15:55 41.21274 27.18544 37046 ft 487 kts 144°
2026-05-05 15:55 41.15717 27.23675 37047 ft 487 kts 144°
2026-05-05 15:56 41.10150 27.28805 37050 ft 487 kts 144°
2026-05-05 15:56 41.04581 27.33928 37061 ft 487 kts 144°
2026-05-05 15:57 40.98997 27.39052 37062 ft 487 kts 144°
2026-05-05 15:57 40.93294 27.43872 37064 ft 487 kts 151°
2026-05-05 15:58 40.87373 27.48295 37065 ft 488 kts 150°
2026-05-05 15:58 40.81525 27.52737 37064 ft 488 kts 149°
2026-05-05 15:59 40.75646 27.57203 37066 ft 488 kts 150°
2026-05-05 15:59 40.69760 27.61665 37071 ft 488 kts 150°
2026-05-05 16:00 40.63870 27.66121 37072 ft 488 kts 150°
2026-05-05 16:00 40.57991 27.70559 37072 ft 487 kts 150°
2026-05-05 16:01 40.52111 27.74990 37075 ft 486 kts 150°
2026-05-05 16:01 40.46236 27.79407 37074 ft 486 kts 150°
2026-05-05 16:02 40.40379 27.83803 37070 ft 486 kts 150°
2026-05-05 16:02 40.34492 27.88212 37078 ft 486 kts 150°
2026-05-05 16:03 40.28612 27.92606 37076 ft 486 kts 150°
2026-05-05 16:03 40.22737 27.96989 37076 ft 486 kts 150°
2026-05-05 16:04 40.16855 28.01367 37072 ft 487 kts 150°
2026-05-05 16:04 40.10975 28.05735 37082 ft 487 kts 150°
2026-05-05 16:05 40.05059 28.10121 37086 ft 488 kts 150°
2026-05-05 16:05 39.99154 28.14491 37075 ft 487 kts 150°
2026-05-05 16:06 39.93238 28.18846 37079 ft 488 kts 151°
2026-05-05 16:06 39.87310 28.23164 37073 ft 488 kts 151°
2026-05-05 16:07 39.81383 28.27478 37072 ft 487 kts 151°
2026-05-05 16:07 39.75460 28.31780 37077 ft 488 kts 151°
2026-05-05 16:08 39.69526 28.36083 37073 ft 488 kts 151°
2026-05-05 16:08 39.63584 28.40381 37065 ft 488 kts 151°
2026-05-05 16:09 39.57691 28.44636 37070 ft 488 kts 151°
2026-05-05 16:09 39.51753 28.48916 37070 ft 488 kts 151°
2026-05-05 16:10 39.45808 28.53191 37074 ft 487 kts 151°
2026-05-05 16:10 39.39871 28.57453 37068 ft 487 kts 151°
2026-05-05 16:11 39.33938 28.61704 37068 ft 487 kts 151°
2026-05-05 16:12 39.22103 28.70158 37068 ft 487 kts 151°
2026-05-05 16:13 39.07277 28.80713 37051 ft 487 kts 151°
2026-05-05 16:13 39.01338 28.84945 37060 ft 487 kts 152°
2026-05-05 16:14 38.89474 28.93374 37056 ft 487 kts 152°
2026-05-05 16:15 38.77661 29.01736 37051 ft 487 kts 152°
2026-05-05 16:16 38.65788 29.10108 37060 ft 487 kts 152°
2026-05-05 16:17 38.56877 29.16375 37063 ft 487 kts 152°
2026-05-05 16:18 38.47945 29.22639 37061 ft 488 kts 152°
2026-05-05 16:19 38.39033 29.28872 37063 ft 488 kts 152°
2026-05-05 16:19 38.30091 29.35107 37058 ft 488 kts 152°
2026-05-05 16:20 38.18150 29.43407 37053 ft 489 kts 152°
2026-05-05 16:22 38.03231 29.53733 37058 ft 488 kts 152°
2026-05-05 16:23 37.91292 29.61961 37055 ft 488 kts 153°
2026-05-05 16:23 37.82361 29.68097 37039 ft 488 kts 153°
2026-05-05 16:24 37.77709 29.72149 37045 ft 487 kts 134°
2026-05-05 16:25 37.70476 29.81201 37057 ft 490 kts 135°
2026-05-05 16:25 37.63235 29.90330 37046 ft 490 kts 135°
2026-05-05 16:26 37.53650 30.02421 35894 ft 484 kts 136°
2026-05-05 16:27 37.51051 30.05040 35196 ft 483 kts 151°
2026-05-05 16:27 37.48976 30.06351 34726 ft 481 kts 161°
2026-05-05 16:27 37.45772 30.07334 34038 ft 477 kts 177°
2026-05-05 16:27 37.42465 30.07588 33187 ft 478 kts 180°
2026-05-05 16:28 37.39142 30.07827 32348 ft 481 kts 174°
2026-05-05 16:28 37.35926 30.09061 31593 ft 485 kts 153°
2026-05-05 16:28 37.33210 30.11550 30902 ft 485 kts 133°
2026-05-05 16:28 37.31223 30.14946 30134 ft 484 kts 117°
2026-05-05 16:29 37.29982 30.18825 29272 ft 482 kts 101°
2026-05-05 16:29 37.29645 30.21617 28941 ft 478 kts 90°
2026-05-05 16:29 37.30131 30.27072 28350 ft 474 kts 70°
2026-05-05 16:29 37.30931 30.29670 28053 ft 470 kts 60°
2026-05-05 16:30 37.33427 30.34040 27515 ft 462 kts 40°
2026-05-05 16:30 37.35951 30.36484 27114 ft 458 kts 26°
2026-05-05 16:30 37.37844 30.37644 26850 ft 455 kts 17°
2026-05-05 16:30 37.40867 30.38837 26482 ft 455 kts 14°
2026-05-05 16:31 37.43876 30.40084 26090 ft 457 kts 15°
2026-05-05 16:31 37.46888 30.41357 25739 ft 457 kts 15°
2026-05-05 16:31 37.49930 30.42524 25375 ft 453 kts
2026-05-05 16:31 37.52956 30.43602 25028 ft 454 kts 20°
2026-05-05 16:32 37.55719 30.45559 24679 ft 458 kts 33°
2026-05-05 16:32 37.58039 30.48298 24340 ft 462 kts 46°
2026-05-05 16:32 37.59833 30.51676 24004 ft 465 kts 59°
2026-05-05 16:32 37.60977 30.55495 23658 ft 469 kts 72°
2026-05-05 16:33 37.61708 30.59493 23252 ft 467 kts 71°
2026-05-05 16:33 37.62929 30.63250 22837 ft 457 kts 57°
2026-05-05 16:33 37.64543 30.66695 22426 ft 453 kts 54°
2026-05-05 16:33 37.66212 30.70002 22041 ft 451 kts 53°
2026-05-05 16:34 37.67616 30.73600 21611 ft 454 kts 70°
2026-05-05 16:34 37.68102 30.77544 21242 ft 460 kts 87°
2026-05-05 16:34 37.67886 30.81519 20860 ft 460 kts 92°
2026-05-05 16:34 37.67607 30.85528 20468 ft 457 kts 92°
2026-05-05 16:35 37.67314 30.89488 20086 ft 447 kts 92°
2026-05-05 16:35 37.67023 30.93353 19724 ft 438 kts 92°
2026-05-05 16:35 37.66568 30.97120 19339 ft 433 kts 104°
2026-05-05 16:35 37.65377 31.00579 18965 ft 429 kts 120°
2026-05-05 16:36 37.63523 31.03497 18607 ft 424 kts 134°
2026-05-05 16:36 37.61449 31.06105 18209 ft 418 kts 135°
2026-05-05 16:36 37.59365 31.08613 17480 ft 410 kts 136°
2026-05-05 16:36 37.57276 31.11051 16715 ft 403 kts 139°
2026-05-05 16:37 37.54944 31.12916 16008 ft 394 kts 158°
2026-05-05 16:37 37.52359 31.13848 15458 ft 380 kts 174°
2026-05-05 16:37 37.49760 31.13971 14976 ft 367 kts 183°
2026-05-05 16:37 37.47243 31.13859 14408 ft 358 kts 185°
2026-05-05 16:38 37.44757 31.13642 13946 ft 355 kts 186°
2026-05-05 16:38 37.42339 31.13373 13490 ft 354 kts 187°
2026-05-05 16:38 37.39864 31.13065 12779 ft 360 kts 187°
2026-05-05 16:38 37.37349 31.12734 12086 ft 366 kts 187°
2026-05-05 16:39 37.34844 31.12394 11457 ft 357 kts 188°
2026-05-05 16:39 37.32413 31.12058 10952 ft 347 kts 188°
2026-05-05 16:39 37.30041 31.11725 10442 ft 338 kts 188°
2026-05-05 16:39 37.27758 31.11407 10260 ft 320 kts 188°
2026-05-05 16:40 37.25581 31.11093 10067 ft 310 kts 191°
2026-05-05 16:40 37.23602 31.10179 9416 ft 302 kts 218°
2026-05-05 16:40 37.22172 31.08336 8807 ft 294 kts 239°
2026-05-05 16:40 37.21164 31.06130 8224 ft 290 kts 240°
2026-05-05 16:41 37.20072 31.04006 7634 ft 289 kts 240°
2026-05-05 16:41 37.18987 31.01889 7071 ft 289 kts 240°
2026-05-05 16:41 37.17911 30.99782 6504 ft 288 kts 240°
2026-05-05 16:41 37.17546 30.99064 6308 ft 288 kts 241°
2026-05-05 16:42 37.16681 30.97363 5838 ft 288 kts 241°
2026-05-05 16:42 37.15606 30.95251 5336 ft 284 kts 241°
2026-05-05 16:42 37.14556 30.93184 4940 ft 278 kts 241°
2026-05-05 16:42 37.13531 30.91171 4539 ft 270 kts 242°
2026-05-05 16:43 37.12551 30.89245 4261 ft 259 kts 241°
2026-05-05 16:43 37.11602 30.87380 4075 ft 249 kts 242°
2026-05-05 16:43 37.10688 30.85592 3903 ft 239 kts 242°
2026-05-05 16:43 37.09812 30.83876 3730 ft 229 kts 242°
2026-05-05 16:44 37.08781 30.82362 3474 ft 233 kts 218°
2026-05-05 16:44 37.07276 30.81593 3192 ft 237 kts 191°
2026-05-05 16:44 37.05642 30.81391 2950 ft 233 kts 187°
2026-05-05 16:44 37.04079 30.81206 2700 ft 220 kts 189°
2026-05-05 16:45 37.02594 30.80999 2415 ft 208 kts 190°
2026-05-05 16:45 37.01228 30.80809 2153 ft 188 kts 190°
2026-05-05 16:45 36.99985 30.80637 1930 ft 174 kts 190°
2026-05-05 16:45 36.98795 30.80468 1715 ft 170 kts 190°
2026-05-05 16:46 36.97631 30.80318 1457 ft 164 kts 189°
2026-05-05 16:46 36.96516 30.80161 1205 ft 157 kts 188°
2026-05-05 16:46 36.95456 30.79999 1001 ft 148 kts 187°
2026-05-05 16:46 36.94451 30.79869 770 ft 148 kts 185°
2026-05-05 16:47 36.93423 30.79729 595 ft 142 kts 185°
2026-05-05 16:47 36.92463 30.79609 395 ft 139 kts 187°
2026-05-05 16:47 36.91490 30.79470 227 ft 141 kts 187°
2026-05-05 16:47 36.90616 30.79347 179 ft 103 kts 186°
2026-05-05 16:48 36.90099 30.79275 179 ft 55 kts 186°
2026-05-05 16:48 36.89820 30.79238 179 ft 29 kts 185°
2026-05-05 16:48 36.89634 30.79235 178 ft 24 kts 170°
2026-05-05 16:48 36.89480 30.79290 179 ft 19 kts 154°
2026-05-05 16:49 36.89371 30.79352 179 ft 16 kts 157°
2026-05-05 16:49 36.89326 30.79387 178 ft 0 kts 110°
2026-05-05 16:49 36.89328 30.79391 178 ft 1 kts 57°
2026-05-05 16:49 36.89338 30.79392 178 ft 4 kts
2026-05-05 16:50 36.89378 30.79398 178 ft 7 kts
2026-05-05 16:50 36.89436 30.79406 178 ft 10 kts
2026-05-05 16:50 36.89514 30.79415 179 ft 13 kts
2026-05-05 16:50 36.89613 30.79428 178 ft 16 kts
2026-05-05 16:51 36.89729 30.79444 178 ft 18 kts
2026-05-05 16:51 36.89820 30.79461 178 ft 2 kts 31°
2026-05-05 16:51 36.89844 30.79475 178 ft 8 kts 35°
2026-05-05 16:51 36.89855 30.79536 178 ft 9 kts 103°
2026-05-05 16:52 36.89840 30.79640 178 ft 13 kts 108°
2026-05-05 16:52 36.89811 30.79699 178 ft 8 kts 103°
2026-05-05 16:52 36.89802 30.79781 178 ft 11 kts 98°
2026-05-05 16:52 36.89786 30.79882 178 ft 13 kts 99°
2026-05-05 16:53 36.89784 30.79969 178 ft 8 kts 89°
2026-05-05 16:53 36.89784 30.80004 178 ft 3 kts 89°
2026-05-05 16:53 36.89784 30.80005 178 ft 0 kts 89°